Location: Sternwarte Stuttgart
(48.7670°N, 9.1830°E)
Time: 10:43:30
(UTC+02:00)

Cosmos 1812 Rocket - Pass Details

Date: 24 January 2019
Orbit: 605 x 633 km, 82.5° (Epoch: 21 April)

Event Time Altitude Azimuth Distance (km) Brightness Sun altitude
Rises 06:04:36 0° 198° (SSW) 2,865 6.9 -19.3°
Reaches altitude 10° 06:06:50 10° 203° (SSW) 1,962 6.0 -19.0°
Maximum altitude 06:11:07 58° 283° (WNW) 714 3.5 -18.3°
Drops below altitude 10° 06:15:25 10° 3° (N) 1,968 6.1 -17.6°
Sets 06:17:40 0° 7° (N) 2,876 7.0 -17.2°
